Regional Weather Roundup
Issued by NWS Midland/Odessa, TX

Skip options and go directly to product.
Home | Oldest Version | Previous Version | Current Version | All | Text Only | Save Text | Print | Product List | Glossary Off

Skip product version selection by date and time.   

867
ASUS44 KMAF 060901
RWRMAF
MIDLAND AREA WEATHER ROUNDUP
NATIONAL WEATHER SERVICE MIDLAND TX
400 AM CDT MON JUL 06 2015

...IN SOUTHWEST TEXAS AND SOUTHEAST NEW MEXICO...

CITY           SKY/WX    TMP DP  RH WIND       PRES   REMARKS
ALPINE         CLOUDY    74  61  64 W7        30.15S
ANDREWS        FAIR      74  64  70 S12G18    29.98F
ARTESIA        MOCLDY    77  63  61 S6        29.96F
BIG SPRING     PTCLDY    79  67  66 SE15      29.98F
CARLSBAD       MOCLDY    77  61  57 SE6       29.94S
DRYDEN           N/A     78  68  71 S7        29.95F
FORT STOCKTON  PTCLDY    75  65  70 S14       29.97F
GUAD PASS      MOCLDY    67  61  81 SW21      30.12S
HOBBS          PTCLDY    73  64  73 S12       30.00S
MARFA          MOCLDY   N/A N/A N/A CALM      30.15S
MIDLAND AIRPK  CLEAR     77  65  65 S10       29.97F
MIDLAND INTL   PTCLDY    77  65  66 S14       29.96F
ODESSA         PTCLDY    77  64  64 S13       29.97F
PECOS          MOCLDY    78  64  60 E3        29.93S
PRESIDIO       FAIR      77  70  80 MISG      30.02S
SEMINOLE       CLEAR     74  63  68 S8        29.99F
SNYDER         CLEAR     74  66  75 S9        29.98S
WINK           PTCLDY    77  64  64 SE10      29.93F
$$
...OTHER STATIONS IN TEXAS...

CITY           SKY/WX    TMP DP  RH WIND       PRES   REMARKS
ABILENE        CLEAR     78  70  76 S13       29.96F
AMARILLO       CLEAR     73  64  73 S15       29.96S
AUSTIN         MOCLDY    77  75  93 S12       30.01S
BROWNSVILLE    CLEAR     79  76  90 S9        29.99S
CORPUS CHRISTI PTCLDY    80  77  90 S12       30.00S
DALLAS FTW     MOCLDY    80  72  76 S16       29.95S
DEL RIO        CLEAR     80  71  74 SE9       29.93S
EL PASO        CLOUDY    79  58  48 W8        30.03F
HOUSTON INT    MOCLDY    80  76  87 S7        30.03S
LUBBOCK        PTCLDY    74  64  71 S16       29.98S
SAN ANGELO     CLEAR     78  70  76 S9        29.96F
SAN ANTONIO    MOCLDY    79  72  79 S14G23    30.01F
WACO           CLOUDY    79  73  82 S21       29.99S
WICHITA FALLS  NOT AVBL
$$
...OTHER LOCATIONS IN NEW MEXICO...

CITY           SKY/WX    TMP DP  RH WIND       PRES   REMARKS
ALAMAGORDO     MOCLDY    75  57  53 CALM      30.04S
ALBUQUERQUE    CLOUDY    68  61  78 E6        30.15F
CANNON AFB     PTCLDY    70  64  80 S7        29.99S
CLOVIS         PTCLDY    70  61  73 S8          N/A
HOLLOMAN AFB   PTCLDY    74  62  65 VRB6      30.01S
ROSWELL        MOCLDY    78  61  55 W9        29.95S
RUIDOSO        CLEAR     63  54  72 NW7       30.23S
SANTA FE       CLOUDY    63  56  78 N7        30.18F
TRUTH OR CONSE CLOUDY    72  56  57 NW12      30.10S
TUCUMCARI      PTCLDY    72  58  61 SW5       29.93S
$$

USA.gov is the U.S. government's official web portal to all federal, state and local government web resources and services.